Flag for U.S.A. Weather past 2 weeks in Pontiac, Michigan, U.S.A.

Now
12 °F

Broken clouds.


Feels Like: -6 °F
Forecast: 10 / 21 °F
Wind: 20 mph from North

Location: Oakland County International Airport

Current Time: Jan 30, 2015 at 11:06:43 AM

Latest Report: Jan 30, 2015 at 9:53 AM


Visibility: 10 mi

Pressure: 30.42 "Hg

Humidity: 67%

Dew point: 3 °F

Location of PontiacLocation

Historic Weather in Pontiac — Graph

°F

Pontiac temperature yesterday

Maximum temperature yesterday: 32 °F (at 1:53 PM)
Minimum temperature yesterday: 24 °F (at 12:53 AM)
Average temperature yesterday: 28 °F

Past Weeks' High & Low Weather Summary

 TemperatureHumidityPressure
High41 °F (Jan 17, 2:53 PM)97% (Jan 18, 9:53 AM)30.42 "Hg (Jan 18, 9:53 AM)
Low5 °F (Jan 28, 4:53 AM)34% (Jan 28, 1:53 PM)29.54 "Hg (Jan 24, 12:53 PM)
Average24 °F76%30.02 "Hg
* Reported Jan 15 9:53 AM — Jan 30 9:53 AM, Pontiac, Weather by CustomWeather, © 2014

Note: Actual official high and low records may vary slightly from our data, if they occured in-between our weather recording intervals... More about our weather records

Advertising

Pontiac weather history for previous 24 hours

 ConditionsComfort  
Time TempWeatherWind HumidityBarometerVisibility
9:53 AM
Jan 30
12 °FBroken clouds.20 mph67%30.42 "Hg10 mi
8:53 AM12 °FPartly sunny.15 mph70%30.41 "Hg10 mi
7:53 AM12 °FPartly sunny.15 mph70%30.37 "Hg9 mi
6:53 AM14 °FLight snow. Overcast.9 mph77%30.33 "Hg4 mi
6:00 AM15 °FPassing clouds.20 mph70%30.24 "Hg10 mi
4:53 AM17 °FPartly cloudy.21 mph70%30.24 "Hg10 mi
3:53 AM19 °FMostly cloudy.17 mph71%30.19 "Hg7 mi
2:53 AM20 °FLight snow. Mostly cloudy.16 mph74%30.17 "Hg3 mi
2:02 AM21 °FLight snow. Mostly cloudy.23 mph78%30.10 "Hg2 mi
1:00 AM22 °FLight snow. Mostly cloudy.21 mph78%30.08 "Hg5 mi
11:53 PM
Jan 29
25 °FLight snow. Overcast.17 mph72%30.08 "Hg7 mi
10:53 PM28 °FLight snow. Mostly cloudy.17 mph69%30.05 "Hg9 mi
10:00 PM28 °FMostly cloudy.17 mph72%29.99 "Hg10 mi
8:53 PM30 °FLight snow. Mostly cloudy.24 mph75%29.99 "Hg10 mi
8:01 PM30 °FMostly cloudy.18 mph89%29.93 "Hg10 mi
7:53 PM30 °FLight freezing rain. Ice fog.14 mph89%29.96 "Hg6 mi
6:53 PM30 °FIce fog.13 mph85%29.93 "Hg6 mi
5:53 PM30 °FLight snow. Ice fog.13 mph85%29.88 "Hg6 mi
4:53 PM30 °FLight snow. Ice fog.12 mph89%29.83 "Hg2 mi
3:53 PM30 °FLight snow. Ice fog.14 mph89%29.78 "Hg1 mi
2:53 PM30 °FLight snow. Ice fog.10 mph92%29.74 "Hg1 mi
1:53 PM32 °FSleet. Overcast.13 mph79%29.72 "Hg9 mi
12:53 PM31 °FSleet. Overcast.6 mph76%29.72 "Hg9 mi
11:53 AM31 °FOvercast.3 mph73%29.74 "Hg10 mi
Weather by CustomWeather, © 2014

See weather overviewHow to use our weather pages